GW1669 Weather Reports


time (UTC)temp
C
wind
direction
speed
KPH
gust
KPH
rain 1hr
cm
rain 24hr
cm
rain mn
cm
humidity
%
barometer
mb
20260509135329 10 270 4.8 6.4 0.13 0.36 0.36 95 1009.6
20260509134827 10 273 9.7 12.9 0.00 0.33 0.33 94 1009.6
20260509134324 10 238 6.4 11.3 0.18 0.33 0.33 94 1009.9
20260509133820 10 223 3.2 9.7 0.18 0.33 0.33 95 1009.9
20260509133317 10 245 9.7 12.9 0.00 0.30 0.30 95 1009.9
20260509132816 10 252 6.4 11.3 0.13 0.30 0.30 95 1009.9
20260509132314 10 240 4.8 9.7 0.13 0.30 0.30 95 1009.9
20260509131810 10 261 4.8 6.4 0.18 0.28 0.28 95 1009.9
20260509131307 10 280 3.2 6.4 0.18 0.28 0.28 95 1010.3
20260509130804 9 240 6.4 14.5 0.00 0.25 0.25 95 1009.9
20260509130259 9 223 1.6 4.8 0.13 0.25 0.25 95 1009.9
20260509125756 9 212 3.2 11.3 0.00 0.25 0.25 95 1010.3
20260509125253 9 241 9.7 12.9 0.00 0.23 0.23 95 1010.3
20260509124749 9 177 3.2 4.8 0.18 0.23 0.23 95 1009.9
20260509124246 9 255 4.8 11.3 0.00 0.23 0.23 95 1009.9
20260509123744 9 291 4.8 9.7 0.18 0.20 0.20 95 1010.3
20260509123241 9 255 6.4 9.7 0.18 0.20 0.20 95 1010.3
20260509122736 9 258 6.4 9.7 0.00 0.18 0.18 95 1010.3
20260509122234 9 262 6.4 9.7 0.13 0.18 0.18 95 1010.3
20260509121731 9 258 4.8 12.9 0.13 0.18 0.18 94 1010.3
20260509121228 9 248 9.7 11.3 0.00 0.15 0.15 95 1010.3
20260509120726 9 211 4.8 9.7 0.00 0.15 0.15 94 1010.3
20260509120223 9 247 3.2 9.7 0.18 0.15 0.15 94 1010.3
20260509115721 9 188 3.2 4.8 0.18 0.15 0.15 94 1010.3
20260509115218 9 251 3.2 11.3 0.00 0.13 0.13 93 1010.3
20260509114717 9 249 3.2 4.8 0.13 0.13 0.13 93 1010.3
20260509114215 9 198 3.2 4.8 0.13 0.13 0.13 93 1010.3
20260509113713 9 214 3.2 4.8 0.00 0.10 0.10 93 1010.3
20260509113210 8 219 6.4 12.9 0.18 0.10 0.10 92 1010.3
20260509112707 8 233 4.8 6.4 0.00 0.08 0.08 92 1010.3
20260509112203 8 218 4.8 6.4 0.00 0.08 0.08 92 1010.3
20260509111701 8 267 8.0 9.7 0.00 0.08 0.08 93 1010.3
20260509111158 8 245 3.2 4.8 0.00 0.08 0.08 93 1010.3
20260509110655 8 195 3.2 4.8 0.00 0.08 0.08 92 1009.9
20260509110151 8 202 6.4 11.3 0.00 0.08 0.08 92 1010.3
20260509105650 8 281 8.0 9.7 0.00 0.08 0.08 92 1010.3
20260509105147 8 276 4.8 6.4 0.00 0.08 0.08 92 1009.9
20260509104644 8 221 4.8 9.7 0.00 0.08 0.08 92 1010.3
20260509104141 8 218 3.2 11.3 0.00 0.08 0.08 92 1010.3
20260509103639 8 232 6.4 6.4 0.00 0.08 0.08 92 1010.3
20260509103136 8 229 4.8 11.3 0.13 0.08 0.08 92 1010.3
20260509102634 8 196 4.8 4.8 0.00 0.05 0.05 92 1010.3
20260509102131 8 253 6.4 9.7 0.00 0.05 0.05 92 1010.3
20260509101627 8 201 1.6 4.8 0.00 0.05 0.05 92 1010.3
20260509101123 8 221 3.2 9.7 0.00 0.05 0.05 92 1010.3
20260509100621 8 194 3.2 9.7 0.00 0.05 0.05 93 1010.3
20260509100118 7 226 1.6 4.8 0.00 0.05 0.05 93 1010.7
20260509095614 7 211 3.2 4.8 0.00 0.05 0.05 94 1010.7
20260509095112 7 195 1.6 4.8 0.18 0.05 0.05 94 1010.7
20260509094608 7 177 0.0 3.2 0.00 0.05 0.05 94 1010.7
20260509094105 7 183 0.0 1.6 0.00 0.03 0.03 94 1010.7
20260509093604 7 207 1.6 3.2 0.00 0.03 0.03 94 1010.7
20260509093101 7 178 0.0 1.6 0.00 0.03 0.03 93 1010.7
20260509092558 7 204 6.4 9.7 0.00 0.03 0.03 93 1010.7
20260509092057 7 220 1.6 3.2 0.00 0.03 0.03 93 1010.7
20260509091554 7 177 0.0 3.2 0.00 0.03 0.03 94 1010.7
20260509091050 7 195 0.0 3.2 0.00 0.03 0.03 95 1010.3
20260509090548 7 239 0.0 1.6 0.00 0.03 0.03 95 1009.9
20260509090046 7 184 3.2 3.2 0.13 0.03 0.03 95 1009.9
20260509085542 7 191 3.2 3.2 0.13 0.03 0.03 96 1010.3
20260509085038 7 271 0.0 1.6 0.00 0.00 0.00 96 1009.9
20260509084536 7 211 0.0 1.6 0.00 0.00 0.00 96 1009.9
20260509084033 7 211 1.6 1.6 0.00 0.00 0.00 97 1009.9
20260509083530 7 169 0.0 0.0 0.00 0.00 0.00 97 1009.9
20260509083027 7 169 0.0 1.6 0.00 0.00 0.00 97 1009.9
20260509082524 7 168 0.0 0.0 0.00 0.00 0.00 97 1009.9
20260509082021 7 169 0.0 0.0 0.00 0.00 0.00 97 1009.6
20260509081519 7 157 0.0 0.0 0.00 0.00 0.00 97 1009.6
20260509081015 7 157 0.0 0.0 0.00 0.00 0.00 97 1009.6
20260509080513 7 157 0.0 0.0 0.00 0.00 0.00 97 1009.6
20260509080011 7 157 0.0 0.0 0.00 0.00 0.00 97 1009.6
20260509075508 7 157 0.0 0.0 0.00 0.00 0.00 97 1009.6
20260509075006 7 157 0.0 0.0 0.00 0.00 0.00 97 1009.6
20260509074503 7 157 0.0 1.6 0.00 0.00 0.00 97 1009.6
20260509073959 7 144 0.0 0.0 0.00 0.00 0.00 97 1009.6
20260509073455 7 144 0.0 0.0 0.00 0.00 0.00 97 1009.6
20260509072952 7 144 0.0 0.0 0.00 0.00 0.00 97 1009.6
20260509072449 7 144 0.0 1.6 0.00 0.00 0.00 97 1009.6
20260509071946 7 144 0.0 1.6 0.00 0.00 0.00 97 1009.6
20260509071442 7 144 0.0 0.0 0.00 0.00 0.00 97 1009.6
20260509070940 7 144 0.0 1.6 0.00 0.00 0.00 96 1009.6
20260509070437 7 144 0.0 0.0 0.00 0.00 0.00 96 1009.6
20260509065932 7 144 0.0 1.6 0.00 0.00 0.00 96 1009.6
20260509065428 7 144 0.0 1.6 0.00 0.00 0.00 96 1009.9
20260509064925 7 137 1.6 1.6 0.00 0.00 0.00 96 1009.9
20260509064423 7 142 0.0 0.0 0.00 0.00 0.00 95 1009.9
20260509063920 7 142 0.0 0.0 0.00 0.00 0.00 95 1010.3
20260509063416 7 142 0.0 0.0 0.00 0.00 0.00 95 1010.3
20260509062913 7 142 0.0 1.6 0.00 0.00 0.00 95 1010.3
20260509062410 7 125 1.6 1.6 0.00 0.00 0.00 95 1010.7
20260509061907 7 145 0.0 0.0 0.00 0.00 0.00 94 1010.7
20260509061405 7 145 0.0 0.0 0.00 0.00 0.00 94 1010.7
20260509060902 7 145 0.0 0.0 0.00 0.00 0.00 94 1010.7
20260509060359 7 144 0.0 1.6 0.00 0.00 0.00 94 1011.0
20260509055854 7 142 0.0 1.6 0.00 0.00 0.00 94 1010.7
20260509055350 7 147 0.0 0.0 0.00 0.00 0.00 94 1011.0
20260509054847 7 147 0.0 0.0 0.00 0.00 0.00 94 1011.0
20260509054344 7 147 0.0 0.0 0.00 0.00 0.00 94 1011.3
20260509053842 7 147 0.0 1.6 0.00 0.00 0.00 94 1011.3
20260509053339 7 147 0.0 0.0 0.00 0.00 0.00 94 1011.3
20260509052837 7 147 0.0 0.0 0.00 0.00 0.00 93 1011.3
20260509052334 7 147 0.0 0.0 0.00 0.00 0.00 92 1011.3
20260509051832 7 147 0.0 0.0 0.00 0.00 0.00 91 1011.0
20260509051330 8 147 0.0 0.0 0.00 0.00 0.00 91 1011.3
20260509050826 8 147 0.0 0.0 0.00 0.00 0.00 90 1011.3
20260509050323 8 90 0.0 0.0 0.00 0.00 0.00 89 1011.3
20260509045820 8 89 1.6 1.6 0.00 0.00 0.00 89 1011.3
20260509045317 8 127 0.0 1.6 0.00 0.00 0.00 89 1011.7
20260509044814 8 136 0.0 1.6 0.00 0.00 0.00 89 1011.3
20260509044312 8 126 1.6 3.2 0.00 0.00 0.00 90 1011.7
20260509043808 8 147 1.6 1.6 0.00 0.00 0.00 90 1011.3
20260509043304 8 136 1.6 1.6 0.00 0.00 0.00 90 1011.7
20260509042800 8 137 1.6 3.2 0.00 0.00 0.00 90 1011.7
20260509042257 8 148 0.0 1.6 0.00 0.00 0.00 91 1011.7
20260509041753 8 159 1.6 3.2 0.00 0.00 0.00 91 1011.7
20260509041250 8 151 3.2 3.2 0.00 0.00 0.00 91 1012.1
20260509040749 8 141 1.6 3.2 0.00 0.00 0.00 90 1012.1
20260509040246 8 125 0.0 1.6 0.00 0.00 0.00 89 1012.5
20260509035742 8 90 1.6 3.2 0.00 0.00 0.00 89 1012.5
20260509035239 8 144 0.0 1.6 0.00 0.00 0.00 89 1012.5
20260509034736 8 144 0.0 1.6 0.00 0.00 0.00 88 1012.5
20260509034234 8 134 0.0 3.2 0.00 0.00 0.00 88 1012.5
20260509033731 8 141 3.2 3.2 0.00 0.00 0.00 87 1012.5
20260509033228 8 94 1.6 1.6 0.00 0.00 0.00 87 1012.5
20260509032725 8 91 0.0 1.6 0.00 0.00 0.00 86 1012.5
20260509032222 8 127 3.2 3.2 0.00 0.00 0.00 86 1012.1
20260509031719 8 144 0.0 3.2 0.00 0.00 0.00 86 1012.1
20260509031217 8 120 3.2 4.8 0.00 0.00 0.00 85 1012.1
20260509030714 8 142 3.2 3.2 0.00 0.00 0.00 85 1012.1
20260509030211 8 90 3.2 4.8 0.00 0.00 0.00 84 1012.5
20260509025708 8 128 1.6 3.2 0.00 0.00 0.00 85 1012.1
20260509025204 8 172 1.6 1.6 0.00 0.00 0.00 86 1012.1
20260509024659 8 152 1.6 3.2 0.00 0.00 0.00 84 1012.1
20260509024155 8 70 3.2 3.2 0.00 0.00 0.00 84 1012.1
20260509023653 8 135 1.6 3.2 0.00 0.00 0.00 84 1012.1
20260509023150 8 137 1.6 1.6 0.00 0.00 0.00 82 1012.1
20260509022646 8 137 0.0 1.6 0.00 0.00 0.00 83 1012.1
20260509022144 8 132 1.6 1.6 0.00 0.00 0.00 82 1011.7
20260509021641 8 134 0.0 0.0 0.00 0.00 0.00 81 1011.7
20260509021138 8 134 0.0 0.0 0.00 0.00 0.00 79 1011.7
20260509020636 8 76 0.0 1.6 0.00 0.00 0.00 80 1011.7
20260509020133 8 76 0.0 1.6 0.00 0.00 0.00 78 1011.3
20260509015632 8 76 1.6 1.6 0.00 0.00 0.00 78 1011.7
20260509015129 8 76 1.6 1.6 0.00 0.00 0.00 79 1011.7
20260509014625 8 97 1.6 3.2 0.00 0.00 0.00 80 1011.7
20260509014121 8 163 0.0 1.6 0.00 0.00 0.00 79 1011.3
20260509013619 8 154 0.0 1.6 0.00 0.00 0.00 81 1011.3
20260509013114 8 179 1.6 3.2 0.00 0.00 0.00 82 1011.3
20260509012611 8 160 0.0 1.6 0.00 0.00 0.00 83 1011.3
20260509012108 8 159 1.6 3.2 0.00 0.00 0.00 83 1011.3
20260509011606 8 155 0.0 0.0 0.00 0.00 0.00 84 1011.7
20260509011103 8 153 0.0 0.0 0.00 0.00 0.00 82 1011.7
20260509010601 8 154 0.0 1.6 0.00 0.00 0.00 83 1011.7
20260509010057 9 146 0.0 1.6 0.00 0.00 0.00 82 1011.7
20260509005555 9 134 3.2 3.2 0.00 0.00 0.00 81 1011.7
20260509005050 9 171 1.6 1.6 0.00 0.00 0.00 80 1011.3
20260509004547 9 145 0.0 1.6 0.00 0.00 0.00 77 1011.7
20260509004044 9 129 1.6 1.6 0.00 0.00 0.00 77 1011.7
20260509003542 9 158 0.0 0.0 0.00 0.00 0.00 76 1011.7
20260509003039 9 158 0.0 0.0 0.00 0.00 0.00 76 1011.3
20260509002537 10 150 0.0 0.0 0.00 0.00 0.00 75 1011.3
20260509002034 10 139 0.0 1.6 0.00 0.00 0.00 72 1011.3
20260509001531 10 138 0.0 1.6 0.00 0.00 0.00 72 1011.3
20260509001027 10 149 0.0 0.0 0.00 0.00 0.00 74 1011.3
20260509000526 10 157 0.0 1.6 0.00 0.00 0.00 73 1011.3
20260509000021 10 150 0.0 1.6 0.00 0.00 0.00 70 1011.3
20260508235519 10 115 1.6 1.6 0.00 0.00 0.00 72 1011.3
20260508235015 10 164 0.0 1.6 0.00 0.00 0.00 70 1011.3
20260508234513 10 164 1.6 3.2 0.00 0.00 0.00 70 1011.3
20260508234010 10 145 0.0 1.6 0.00 0.00 0.00 68 1011.3
20260508233509 11 146 0.0 1.6 0.00 0.00 0.00 68 1011.3
20260508233006 11 178 0.0 1.6 0.00 0.00 0.00 68 1011.3
20260508232503 11 164 0.0 1.6 0.00 0.00 0.00 68 1011.3
20260508232000 11 180 0.0 1.6 0.00 0.00 0.00 66 1011.3
20260508231457 11 135 0.0 0.0 0.00 0.00 0.00 67 1011.3
20260508230954 11 314 1.6 3.2 0.00 0.00 0.00 65 1011.3
20260508230451 11 335 4.8 4.8 0.00 0.00 0.00 63 1011.3
20260508225947 11 166 1.6 1.6 0.00 0.00 0.00 66 1011.3
20260508225444 11 192 0.0 1.6 0.00 0.00 0.00 65 1011.3
20260508224942 12 155 0.0 0.0 0.00 0.00 0.00 66 1011.3
20260508224439 11 152 0.0 1.6 0.00 0.00 0.00 66 1011.3
20260508223936 11 192 1.6 3.2 0.00 0.00 0.00 65 1011.3
20260508223434 11 211 1.6 3.2 0.00 0.00 0.00 66 1011.3
20260508222931 11 227 3.2 6.4 0.00 0.00 0.00 66 1011.3
20260508222429 11 202 3.2 4.8 0.00 0.00 0.00 68 1011.3
20260508221925 11 267 3.2 6.4 0.00 0.00 0.00 65 1011.3
20260508221421 11 240 4.8 4.8 0.00 0.00 0.00 66 1011.3
20260508220917 11 201 3.2 4.8 0.00 0.00 0.00 68 1011.3
20260508220414 11 242 3.2 9.7 0.00 0.00 0.00 67 1011.3
20260508215910 11 220 1.6 3.2 0.00 0.00 0.00 66 1011.3
20260508215407 11 192 1.6 3.2 0.00 0.00 0.00 66 1011.3
20260508214903 11 249 3.2 11.3 0.00 0.00 0.00 66 1011.3
20260508214402 11 252 1.6 4.8 0.00 0.00 0.00 68 1011.3
20260508213857 11 285 4.8 6.4 0.00 0.00 0.00 68 1011.7
20260508213355 11 187 1.6 4.8 0.00 0.00 0.00 69 1011.7
20260508212850 11 292 3.2 4.8 0.00 0.00 0.00 68 1011.7
20260508212347 11 263 3.2 4.8 0.00 0.00 0.00 68 1011.7
20260508211843 11 213 4.8 9.7 0.00 0.00 0.00 67 1011.7
20260508211339 11 344 6.4 9.7 0.00 0.00 0.00 66 1011.7
20260508210836 11 228 4.8 9.7 0.00 0.00 0.00 67 1011.7
20260508210333 12 268 6.4 11.3 0.00 0.00 0.00 63 1011.7
20260508205830 11 305 6.4 9.7 0.00 0.00 0.00 65 1011.7
20260508205326 11 293 11.3 17.7 0.00 0.00 0.00 66 1011.3
20260508204822 11 171 4.8 11.3 0.00 0.00 0.00 67 1011.7
20260508204319 11 288 6.4 16.1 0.00 0.00 0.00 65 1012.1
20260508203815 12 269 6.4 24.1 0.00 0.00 0.00 64 1012.1
20260508203312 12 345 3.2 4.8 0.00 0.00 0.00 65 1012.1
20260508202807 12 201 4.8 11.3 0.00 0.00 0.00 61 1011.7
20260508202307 12 173 3.2 11.3 0.00 0.00 0.00 61 1012.1
20260508201802 12 299 4.8 9.7 0.00 0.00 0.00 62 1011.7
20260508201259 12 321 6.4 14.5 0.00 0.00 0.00 60 1012.1
20260508200755 12 322 6.4 11.3 0.00 0.00 0.00 60 1011.7
20260508200252 12 286 8.0 22.5 0.00 0.00 0.00 59 1011.7
20260508195748 12 261 4.8 11.3 0.00 0.00 0.00 61 1011.7
20260508195244 12 230 6.4 16.1 0.00 0.00 0.00 59 1011.7
20260508194741 12 260 11.3 20.9 0.00 0.00 0.00 59 1011.7
20260508194238 12 287 11.3 14.5 0.00 0.00 0.00 58 1011.7
20260508193735 12 305 6.4 12.9 0.00 0.00 0.00 62 1012.1
20260508193231 12 167 4.8 6.4 0.00 0.00 0.00 63 1012.1
20260508192728 12 286 6.4 17.7 0.00 0.00 0.00 61 1012.1
20260508192225 11 311 6.4 11.3 0.00 0.00 0.00 64 1012.1
20260508191722 11 269 6.4 12.9 0.00 0.00 0.00 64 1012.5
20260508191219 11 244 1.6 9.7 0.00 0.00 0.00 67 1012.5
20260508190716 12 261 8.0 16.1 0.00 0.00 0.00 62 1012.1
20260508190213 12 292 12.9 16.1 0.00 0.00 0.00 62 1012.1
20260508185709 12 247 17.7 24.1 0.00 0.00 0.00 61 1012.1
20260508185208 13 307 6.4 25.7 0.00 0.00 0.00 56 1012.1
20260508184704 13 277 12.9 27.4 0.00 0.00 0.00 52 1012.1
20260508184201 14 321 4.8 11.3 0.00 0.00 0.00 51 1011.7
20260508183658 15 244 6.4 12.9 0.00 0.00 0.00 52 1011.7
20260508183153 14 134 3.2 14.5 0.00 0.00 0.00 52 1011.7
20260508182644 13 304 4.8 9.7 0.00 0.00 0.00 53 1011.7
20260508182141 13 322 3.2 12.9 0.00 0.00 0.00 56 1011.7
20260508181637 12 308 6.4 12.9 0.00 0.00 0.00 56 1012.1
20260508181134 12 236 1.6 9.7 0.00 0.00 0.00 58 1012.1
20260508180631 12 232 8.0 25.7 0.00 0.00 0.00 59 1012.1
20260508180128 13 178 4.8 14.5 0.00 0.00 0.00 59 1012.1
20260508175624 13 301 12.9 16.1 0.00 0.00 0.00 50 1012.1
20260508175121 13 300 4.8 16.1 0.00 0.00 0.00 50 1012.1
20260508174619 13 237 3.2 6.4 0.00 0.00 0.00 49 1012.1
20260508174115 13 286 9.7 35.4 0.00 0.00 0.00 46 1012.1
20260508173612 15 249 8.0 16.1 0.00 0.00 0.00 49 1012.1
20260508173108 16 216 6.4 22.5 0.00 0.00 0.00 44 1012.1
20260508172606 15 318 8.0 16.1 0.00 0.00 0.00 46 1012.5
20260508172102 15 352 11.3 17.7 0.00 0.00 0.00 43 1012.5
20260508171559 15 313 9.7 12.9 0.00 0.00 0.00 44 1012.5
20260508171055 15 244 14.5 30.6 0.00 0.00 0.00 45 1012.5
20260508170553 15 287 6.4 25.7 0.00 0.00 0.00 47 1012.5
20260508170050 14 347 8.0 16.1 0.00 0.00 0.00 47 1012.5
20260508165547 15 258 8.0 22.5 0.00 0.00 0.00 48 1012.5
20260508165044 15 229 6.4 17.7 0.00 0.00 0.00 48 1012.5
20260508164540 15 221 4.8 24.1 0.00 0.00 0.00 46 1012.5
20260508164037 15 324 8.0 14.5 0.00 0.00 0.00 45 1012.5
20260508163535 15 348 4.8 11.3 0.00 0.00 0.00 49 1012.5
20260508163031 15 252 19.3 24.1 0.00 0.00 0.00 45 1012.5
20260508162528 14 316 1.6 12.9 0.00 0.00 0.00 51 1012.5
20260508162025 14 321 8.0 20.9 0.00 0.00 0.00 48 1012.8
20260508161522 14 323 6.4 14.5 0.00 0.00 0.00 49 1012.8
20260508161019 14 227 12.9 17.7 0.00 0.00 0.00 50 1012.8
20260508160518 14 319 6.4 14.5 0.00 0.00 0.00 48 1013.1
20260508160014 13 287 9.7 14.5 0.00 0.00 0.00 51 1013.1
20260508155511 13 285 8.0 9.7 0.00 0.00 0.00 49 1012.8
20260508155008 13 283 12.9 20.9 0.00 0.00 0.00 50 1013.1
20260508154506 13 247 6.4 14.5 0.00 0.00 0.00 48 1013.1
20260508154002 13 298 6.4 11.3 0.00 0.00 0.00 52 1013.1
20260508153459 13 285 6.4 14.5 0.00 0.00 0.00 47 1013.1
20260508152955 12 256 4.8 9.7 0.00 0.00 0.00 53 1013.1
20260508152452 12 260 9.7 12.9 0.00 0.00 0.00 51 1013.1
20260508151948 12 227 8.0 11.3 0.00 0.00 0.00 48 1013.1
20260508151445 13 309 8.0 14.5 0.00 0.00 0.00 47 1013.5
20260508150941 12 274 3.2 12.9 0.00 0.00 0.00 55 1013.1
20260508150438 11 249 3.2 4.8 0.00 0.00 0.00 55 1013.1
20260508145934 11 333 9.7 14.5 0.00 0.00 0.00 50 1013.5
20260508145431 11 181 8.0 11.3 0.00 0.00 0.00 51 1013.1
20260508144927 11 225 4.8 9.7 0.00 0.00 0.00 51 1013.1
20260508144425 11 283 11.3 16.1 0.00 0.00 0.00 51 1013.1
20260508143923 11 339 8.0 24.1 0.00 0.00 0.00 50 1013.1
20260508143420 11 271 8.0 11.3 0.00 0.00 0.00 52 1013.1
20260508142916 10 318 6.4 16.1 0.00 0.00 0.00 52 1013.1
20260508142414 11 212 3.2 6.4 0.00 0.00 0.00 50 1013.1
20260508141910 11 235 6.4 12.9 0.00 0.00 0.00 53 1013.1
20260508141406 10 249 8.0 16.1 0.00 0.00 0.00 50 1013.1
20260508140904 11 236 6.4 11.3 0.00 0.00 0.00 52 1013.1
20260508140401 11 291 4.8 11.3 0.00 0.00 0.00 53 1013.1
20260508135856 10 292 6.4 12.9 0.00 0.00 0.00 54 1013.1